Flag for U.S.A. Weather past 2 weeks in Alexandria, Virginia, U.S.A.

Now
73 °F

Passing clouds.


Feels Like: 77 °F
Forecast: 50 / 72 °F
Wind: 14 mph from Northwest

Location: Reagan National Airport

Current Time: May 22, 2015 at 9:14:01 PM

Latest Report: May 22, 2015 at 8:52 PM


Visibility: 10 mi

Pressure: 30.15 "Hg

Humidity: 32%

Dew point: 41 °F

Location of AlexandriaLocation

Historic Weather in Alexandria — Graph

°F

Alexandria temperature yesterday

Maximum temperature yesterday: 63 °F (at 12:52 AM)
Minimum temperature yesterday: 53 °F (at 1:52 PM)
Average temperature yesterday: 57 °F

Past Weeks' High & Low Weather Summary

 TemperatureHumidityPressure
High89 °F (May 12, 3:52 PM)91% (May 18, 11:52 PM)30.46 "Hg (May 18, 11:52 PM)
Low53 °F (May 21, 1:52 PM)24% (May 22, 6:52 PM)29.83 "Hg (May 19, 6:52 PM)
Average72 °F62%30.11 "Hg
* Reported May 7 7:52 PM — May 22 7:52 PM, Alexandria, Weather by CustomWeather, © 2015

Note: Actual official high and low records may vary slightly from our data, if they occured in-between our weather recording intervals... More about our weather records

Advertising

Alexandria weather history for previous 24 hours

 ConditionsComfort  
Time TempWeatherWind HumidityBarometerVisibility
7:52 PM
Fri, May 22
75 °FPassing clouds.12 mph27%30.12 "Hg10 mi
6:52 PM77 °FScattered clouds.17 mph24%30.10 "Hg10 mi
5:52 PM78 °FScattered clouds.12 mph27%30.08 "Hg10 mi
4:52 PM79 °FScattered clouds.22 mph27%30.08 "Hg10 mi
3:52 PM78 °FScattered clouds.14 mph29%30.09 "Hg10 mi
2:52 PM76 °FPassing clouds.14 mph31%30.09 "Hg10 mi
1:52 PM74 °FPassing clouds.12 mph33%30.09 "Hg10 mi
12:52 PM73 °FPassing clouds.14 mph33%30.11 "Hg10 mi
11:52 AM72 °FPassing clouds.13 mph37%30.11 "Hg10 mi
10:52 AM68 °FSunny.15 mph42%30.11 "Hg10 mi
9:52 AM65 °FSunny.10 mph49%30.10 "Hg10 mi
8:52 AM62 °FSunny.10 mph52%30.09 "Hg10 mi
7:52 AM58 °FSunny.7 mph60%30.07 "Hg10 mi
6:52 AM54 °FSunny.6 mph69%30.06 "Hg10 mi
5:52 AM53 °FPassing clouds.3 mph72%30.03 "Hg10 mi
4:52 AM54 °FPassing clouds.6 mph72%30.01 "Hg10 mi
3:52 AM54 °FPassing clouds.7 mph72%29.99 "Hg10 mi
2:52 AM55 °FPassing clouds.8 mph77%29.97 "Hg10 mi
1:52 AM55 °FPassing clouds.7 mph80%29.97 "Hg10 mi
12:52 AM54 °FPassing clouds.6 mph83%29.96 "Hg10 mi
11:52 PM
Thu, May 21
54 °FPassing clouds.6 mph80%29.96 "Hg10 mi
10:52 PM54 °FPassing clouds.8 mph80%29.96 "Hg10 mi
9:52 PM54 °FPassing clouds.7 mph80%29.96 "Hg9 mi
Weather by CustomWeather, © 2015

See weather overviewHow to use our weather pages